FENGYUN 1C DEB

Satellite information

Favourite Embed

Satellite Type and Status

DEBRISIN ORBIT

Key statistics

Satellite FENGYUN 1C DEB at a glance.

Uptime

9495

Days in orbit

Revolutions

≈ 14.1

Per day

Orbit

SSO

Sun Synchronous Orbit

Inclination

98.8

Latest

Satellite identification and parameters

Extended collection of information and parameters for FENGYUN 1C DEB.

Object identification

Identified? True

Debris? True

Object name: FENGYUN 1C DEB

International designator: 1999-025BLZ

Object number (NORAD): 31243

Object ID (CCSDS): 31243

Country: PEOPLES REPUBLIC OF CHINA (PRC)

Current information (Y/N): Y

RCS size: SMALL

Orbital parameters

Period: 102.378 minutes

Inclination: 98.7663 deg

SMA: 7249.325 km

Apoapsis: 919.934 km

Periapsis: 822.446 km

RAAN: 173.0327 deg

Eccentricy: 0.0067239

Argument of periapsis: 71.6217 deg

Mean anomaly: 289.2249 deg

Mean motion: 14.06553993 rev/day

Mean motion (dot): 0.00001378 rev/day2

B* drag term: 0.00083989 1/REarth

Two-line elements (TLE)

Creation date: May 6, 2025, 3:54 a.m.

Reference frame: TEME

Reference center: EARTH

Epoch: May 5, 2025, 8:54 p.m. UTC

TLE line 0: 0 FENGYUN 1C DEB

TLE line 1: 1 31243U 99025BLZ 25125.87108522 .00001378 00000-0 83989-3 0 9995

TLE line 2: 2 31243 98.7663 173.0327 0067239 71.6217 289.2249 14.06553993662025

Live tracking on map

Real-time ground track for satellite FENGYUN 1C DEB.

In-orbit conjunctions

A list of the most updated potential collisions computed for object FENGYUN 1C DEB.

Target Orbit TCA Probability of collision Miss distance Type
METEOR 1-5 DEB LEO 2024-09-25 11:13:15 0.0005424878 275.0 (m) DEBRIS
THORAD AGENA D DEB LEO 2024-09-25 03:10:05 0.000532529 73.0 (m) DEBRIS

Associated space launch

Chinese polar orbiting meteorological satellite

FENGYUN 1C DEB was lifted into orbit during the mission ‘Long March 4B | Feng Yun 1C’, on board a Long March 4B space rocket.

The launch took place on May 10, 1999, 1:33 a.m. from Launch Complex 7.

For more information about the launch, click the button.

Launch to space Long March 4B | Feng Yun 1C
Long March 4B | Feng Yun 1C

Agency: N/A

Status: Launch Successful

Launch date: May 10, 1999, 1:33 a.m. UTC

Rocket: Long March 4B

Launch pad: Launch Complex 7

Location: Taiyuan Satellite Launch Center, People's Republic of China

...

Latest news about this satellite

There are no fresh news available about this satellite. Check back as we update our databases every day.


Newsletter sign-up

Weekly statistics, charts and insights to help you stay on top of the space industry.